Regional Weather Roundup
Issued by NWS

Home | Current Version | Previous Version | Text Only | Print | Product List | Glossary Off
Versions: 1 2 3 4 5 6 7 8 9 10 11 12 13 14 15 16 17 18 19 20 21 22 23 24 25 26 27 28 29 30 31 32 33 34 35 36 37 38 39 40 41 42 43 44 45 46 47 48 49 50

000
ASUS45 KSLC 040310
RWRUT

UTAH REGIONAL WEATHER ROUNDUP
NATIONAL WEATHER SERVICE SALT LAKE CITY UT
900 PM MDT FRI JUL 03 2015

UTZ001>011-023>025-040400-

NORTHERN UTAH

CITY           SKY/WX    TMP DP  RH WIND       PRES   REMARKS
BRIGHAM CITY   MOCLDY    88  46  23 SE5       29.90S
HILL AFB       PTCLDY    91  41  17 SE5       29.95F
LOGAN          CLEAR     86  54  33 E5        29.91S
OGDEN          PTCLDY    91  41  17 CALM      29.91S
PROVO AIRPORT  NOT AVBL
SALT LAKE CITY MOCLDY    94  43  17 N6        29.89S HX  90
VERNAL         PTCLDY    82  52  35 NW6       29.96R
WENDOVER       MOCLDY    93  45  18 N14       29.90S
HEBER CITY     MOCLDY    79  43  27 CALM      30.03R
WEST JORDAN    CLEAR     90  45  20 CALM      29.94S

$$

UTZ012>022-026-027-040400-

SOUTHERN/CENTRAL UTAH

CITY           SKY/WX    TMP DP  RH WIND       PRES   REMARKS
BLANDING       MOCLDY    79  47  32 E7        30.15R
BRYCE CANYON   PTCLDY    74  45  35 W14       30.22R
CEDAR CITY     CLOUDY    79  50  36 SW7       30.05F
DELTA          CLOUDY    90  40  17 NW7       29.94S
HANKSVILLE     PTCLDY    93  41  16 S9        29.88S
MILFORD        MOCLDY    84  43  23 W9        29.97S
MOAB/CYNLANDS  CLEAR     89  39  17 W5        29.86S
PRICE          PTCLDY    87  35  15 NW9       30.02R
ST GEORGE      MOCLDY    91  54  27 SW6       29.83S
KANAB          MOCLDY    79  61  53 CALM      30.07R

$$

REGIONAL REPORTS     COLORADO/ARIZONA

CITY           SKY/WX    TMP DP  RH WIND       PRES   REMARKS
CRAIG, CO      PTCLDY    76  39  26 SE8       30.05R
GRAND JUNCTION PTCLDY    83  51  33 SE21G28   29.94R
RIFLE          PTCLDY    83  49  30 SE13      29.99R
MONTROSE       MOCLDY    76  49  38 E8        30.08S
CORTEZ         CLEAR     73  49  42 CALM      30.13R
PAGE, AZ       PTCLDY    91  44  19 SW8       29.92R
GRAND CANYON   CLOUDY    70  51  51 CALM      30.17R
KINGMAN        CLOUDY    86  52  30 E20G25    29.94R
FLAGSTAFF      LGT RAIN  64  57  78 SW16      30.24R

$$

REGIONAL REPORTS    NEVADA/IDAHO/WYOMING

CITY           SKY/WX    TMP DP  RH WIND       PRES   REMARKS
LAS VEGAS, NV  MOCLDY   104  31   8 SW16      29.70R HX  97
ELY            PTCLDY    74  54  49 S8        30.09S
ELKO           CLOUDY    79  54  41 NE12      30.03R
POCATELLO, ID  CLEAR     83  53  35 SW12      29.90R
BURLEY         CLOUDY    85  45  24 W13       29.89R
EVANSTON, WY   PTCLDY    75  41  29 W9        30.16R
ROCK SPRINGS   PTCLDY    80  37  21 NW12      30.09R
KEMMERER       MOCLDY   N/A N/A N/A NW5       30.17S

$$



USA.gov is the U.S. government's official web portal to all federal, state and local government web resources and services.